World > North America > United States > Texas

Sunset Valley, Texas Regional Weather

Lat: 30.23N, Lon: 97.82W
Wx Zone: TXZ192Web Search
Sunset Valley Weather Warning NWS WEATHER ALERT FOR THE SUNSET VALLEY, TX AREA - Issued: 330 AM CDT Thu Apr 15 2021 Sunset Valley Weather Warning  

Helpful Tip: Type the letters wx in the search engine next time you need to find us.

Feedback


°F Click to change Sunset Valley hourly weather to Imperial units.Click to change Sunset Valley hourly weather to Metric units. °C
Sunset Valley Weather Map
UTC Time: 4/15/2021, 23:10
Your Time:

Sunset Valley, TX Regional Weather

Expires:202104160000;;612216
ASUS44 KSJT 152302
RWRSJT
WEST CENTRAL TEXAS REGIONAL WEATHER ROUNDUP
NATIONAL WEATHER SERVICE SAN ANGELO TX
600 PM CDT THU APR 15 2021

NOTE: "FAIR" INDICATES FEW OR NO CLOUDS BELOW 12,000 FEET WITH NO
SIGNIFICANT WEATHER AND/OR OBSTRUCTIONS TO VISIBILITY.


TXZ145-158-159-173-191-192-194-205-207-220-223-160000-
CENTRAL AND SOUTH CENTRAL TEXAS
  
CITY           SKY/WX    TMP DP  RH WIND       PRES   REMARKS
AUSTIN/BERGSTM CLOUDY    64  64 100 SE5       29.86S                  
WACO           RAIN      59  57  93 NE3       29.94R FOG              
HILLSBORO      HVY RAIN  58  58 100 CALM      29.94S                  
TEMPLE         TSTM      59  59 100 MISG        N/A  FOG              
KILLEEN-GRAY   TSTM      59  57  94 NE12      29.89R                  
FORT HOOD      RAIN      59  57  94 NE10      29.91F FOG              
GEORGETOWN     CLOUDY    63  60  90 N9        29.92R                  
LAGO VISTA     CLOUDY    62  61  95 E3        29.88R FOG              
SAN MARCOS     CLOUDY    64  64 100 E6        29.87S FOG              
NEW BRAUNFELS  CLOUDY    65  62  90 E7        29.85S FOG              
RANDOLPH AFB   CLOUDY    64  63  94 NE7       29.84  FOG              
SAN ANTONIO    DRIZZLE   64  61  90 NE7       29.85S FOG              
STINSON        CLOUDY    67  62  84 E7        29.82F                  
PLEASANTON     NOT AVBL                                               
LA GRANGE      LGT RAIN  69  66  90 E3        29.86R                  
GIDDINGS       RAIN      65  63  94 E7        29.89R                  
$$


SKY/WX - Weather  TMP - Temperature  DP - Dew Point  RH - Relative Humidity
WIND - Wind Direction/Speed PRES - Barometric Pressure VSB - Visibility
WCI - Wind Chill Index E13G22 Wind - East Wind 13 mph/Gusts of 22 mph